{"data":{"norad_id":61891,"epoch":"2026-09-20T08:48:31.639104Z","epoch_age_seconds":199670,"freshness":"STALE","line1":"1 61891U 24204T   26263.36703286  .00000327  00000+0  20829-4 0  9997","line2":"2 61891  53.1615 298.5614 0001400  82.0346 278.0815 15.34391954104966","mean_motion":15.34391954,"eccentricity":0.00014,"inclination_deg":53.1615,"raan_deg":298.5614,"arg_perigee_deg":82.0346,"mean_anomaly_deg":278.0815,"bstar":2.0829e-5,"rev_number":10496,"period_min":93.848250197485,"perigee_km":461.76943373756,"apogee_km":463.68487570088,"semimajor_km":6840.8641547192,"source":"CELESTRAK","updated_at":"2026-09-22T09:00:49.448035Z"}}